Location: Anna District 4 Election Precinct
(37.4833°N, 89.2195°W)
Time: 13:56:07
(UTC+00:00)

OAO 3 Rocket - Pass Details

Date: 29 October 2020
Orbit: 629 x 682 km, 35.0° (Epoch: 03 December)

Event Time Altitude Azimuth Distance (km) Brightness Sun altitude
Rises 23:20:27 0° 274° (W) 2,998 8.3 -4.5°
Reaches altitude 10° 23:22:58 10° 267° (W) 2,075 7.5 -5.0°
Maximum altitude 23:27:29 40° 198° (SSW) 962 4.4 -5.8°
Drops below altitude 10° 23:31:55 10° 129° (SE) 2,037 5.4 -6.7°
Sets 23:34:21 0° 122° (ESE) 2,936 6.1 -7.2°
Enters shadow 23:34:30 - 122° (ESE) 2,992 6.1 -7.2°
